Regional Weather Roundup
Issued by NWS

Home | Current Version | Previous Version | Text Only | Print | Product List | Glossary Off
Versions: 1 2 3 4 5 6 7 8 9 10 11 12 13 14 15 16 17 18 19 20 21 22 23 24 25 26 27 28 29 30 31 32 33 34 35 36 37 38 39 40 41 42 43 44 45 46 47 48 49 50

000
ASUS43 KIND 310809
RWRIN

WEATHER ROUNDUP FOR INDIANA
NATIONAL WEATHER SERVICE INDIANAPOLIS IN
400 AM EDT FRI JUL 31 2015

NOTE: "FAIR" INDICATES FEW OR NO CLOUDS BELOW 12,000 FEET WITH NO
SIGNIFICANT WEATHER AND/OR OBSTRUCTIONS TO VISIBILITY.

* - STATION DOES NOT REPORT WEATHER SUCH AS PRECIPITATION OR FOG.

+ - STATION NOT QUALITY CONTROLLED BY THE NATIONAL WEATHER SERVICE.
    USE DATA WITH CAUTION...ESPECIALLY DEWPOINT AND RELATIVE
    HUMIDITY OBSERVATIONS.

INZ001>003-010>013-019-020-310900-
NORTHWEST INDIANA

CITY           SKY/WX    TMP DP  RH WIND       PRES   REMARKS
GARY /AIRPORT/ CLEAR     71  63  74 SW6       30.04S
KNOX *+        CLEAR     68  61  77 W9        30.02S
LA PORTE +     CLEAR     67  61  80 W5        30.04R
MICHIGAN CITY+ CLEAR     63  63 100 S3        30.03S
MONTICELLO +   CLEAR     66  65  94 W3        30.04S
RENSSELAER +   CLEAR     64  64 100 W5        30.06S
VALPARAISO     CLEAR     66  61  84 W7        30.04S

$$

LMZ046-743>745-310900-
SOUTHERN LAKE MICHIGAN

STATION/POSITION TIME  TEMP    WIND        PRES    WAVE
                       AIR SEA DIR/SP/G            HT
                 (UTC) (F)     (DEG/KT/KT) (MB)    (FT)
BURNS HARBOR     0700   74     250/  8/  9 1017.3R
MICHIGAN CITY    0715   75     250/ 11/ 13   N/A
5NW MICH CITY    0800   76 74  300/ 12/ 16   N/A     2

$$

INZ004-005-014>016-021>024-310900-
NORTH CENTRAL INDIANA

CITY           SKY/WX    TMP DP  RH WIND       PRES   REMARKS
GOSHEN         CLEAR     64  59  83 W3        30.01S
LOGANSPORT +   CLEAR     63  57  82 CALM      30.05S
PERU/GRISSOM   CLEAR     68  62  83 W9        30.04S
ROCHESTER +    CLEAR     68  64  88 W6        30.04S
SOUTH BEND     CLEAR     66  60  81 SW3       30.02S
WARSAW +       CLEAR     64  61  88 W5        30.02S

$$

INZ006>009-017-018-025>027-310900-
NORTHEAST INDIANA

CITY           SKY/WX    TMP DP  RH WIND       PRES   REMARKS
ANGOLA *+      PTCLDY    66  59  77 W6        30.01S
AUBURN +       CLEAR     66  57  72 W3        30.02S
FORT WAYNE     PTCLDY    67  61  81 W8        30.02F
HUNTINGTON +   CLEAR     67  62  83 W8        30.02F

$$

INZ028-029-035-036-043>045-051>053-310900-
WEST CENTRAL INDIANA

CITY           SKY/WX    TMP DP  RH WIND       PRES   REMARKS
CRAWFORDSVL +  MOCLDY    63  63 100 CALM        N/A
GREENCASTLE +  CLEAR     63  59  88 CALM      30.08F
LAFAYETTE      CLEAR     64  63  96 W3        30.05S
TERRE HAUTE    CLEAR     64  61  90 CALM      30.08S

$$

INZ030>032-037>040-046>048-054>057-064-065-310900-
CENTRAL INDIANA

CITY           SKY/WX    TMP DP  RH WIND       PRES   REMARKS
FISHERS *+     CLEAR     63  63 100 CALM      30.06
FRANKFORT +    PTCLDY   N/A N/A N/A CALM      30.08S
INDIANAPOLIS   CLEAR     66  61  84 SW6       30.05S
-EAGLE CREEK   CLEAR     68  61  78 CALM      30.05F
KOKOMO *+      CLEAR     68  61  77 W8        30.05S
MARION +       PTCLDY    63  60  92 W5        30.05S
MT COMFORT *+  CLEAR     63 N/A N/A CALM      30.06F
SHELBYVILLE    CLEAR     66  62  87 SW5       30.06S
ZIONSVILLE +   CLEAR     69  60  73 W6        30.07F

$$

INZ033-034-041-042-049-050-058-059-310900-
EAST CENTRAL INDIANA

CITY           SKY/WX    TMP DP  RH WIND       PRES   REMARKS
MUNCIE         CLEAR     66  61  84 SW7       30.05S

$$

INZ060-061-067>069-081>083-085>088-310900-
SOUTHWEST INDIANA

CITY           SKY/WX    TMP DP  RH WIND       PRES   REMARKS
EVANSVILLE     PTCLDY    74  64  71 NW7       30.08F
HUNTINGBURG *+ CLEAR     64  63  94 CALM      30.07F
WASHINGTON +   CLEAR     68  64  87 CALM      30.06F

$$

INZ062-063-066-070>080-084-089>092-310900-
SOUTH CENTRAL AND SOUTHEAST INDIANA

CITY           SKY/WX    TMP DP  RH WIND       PRES   REMARKS
BLOOMINGTON    CLEAR     63  62  97 W3        30.08S
MADISON *+     CLEAR     63  61  94 CALM      30.09F
NORTH VERNON + CLEAR     64  64 100 CALM      30.08S
SEYMOUR +      FOG       63  61  94 CALM      30.06F VSB 1/2

$$




USA.gov is the U.S. government's official web portal to all federal, state and local government web resources and services.